STARLINK-31986, 60019

Orbit data source: Space-Track

STARLINK-31986, 60019 is a payload satellite owned by SpaceX/Seattle (US) in LEO that was launched on Sat, 08 Jun 2024 UTC via an FALCON 9 launch vehicle from the Air Force Eastern Test Range (AFETR). Payload-class satellites include a variety of spacecraft equipped with specific instruments for various scientific and technological missions. These include communications satellites like Starlink; space stations such as the ISS; scientific satellites like the Hubble; Earth observation satellites from companies like Planet Labs, Umbra, and HawkEye 360; GPS; miniature CubeSats for education and research; and military/defense satellites.

Loading next visibility...
Identifier
60019, 2024-111D
Orbit
LEO
Country
Flag of USUS
Related business
Manufacturer
SpaceX/Seattle
Mission
Operational Commercial Communications
Bus & Motor
STARLINK V2M, Unknown motor
Mass
730 kg wet, ~700 kg dry
Launch date (UTC)
2024-06-08 (2 years ago)
Launch vehicle
FALCON 9
Launch site
Air Force Eastern Test Range (AFETR)
Object type
Payload
Rocket body
Debris
Shape & HBR
Box + 2 Pan, 17.7 m
Radar Cross Section
33.884 m², Large (>1 m²)

Expand to show TLE details & history
Last TLE update: 2 days ago

TLE from 2 days ago
0 STARLINK-31986
1 60019U 24111D   26171.43718808  .00001744  00000-0  70978-4 0  9992
2 60019  53.1622 318.4401 0000983  93.2030 266.9084 15.30205550114776
Epoch: 2026-06-20T10:29Z
TLE epoch observation values (Epoch: 2026-06-20T10:29:33.050Z)
Latitude
0.00006°
Longitude
-107.59939°
Altitude
476.135 km
Speed
7.629 km/s
True Right ascension
21h 13m 45s
True Declination
0° 00' 00"
Sunlit
Object was in full shadow at epoch
Visualization orbit readout
Latitude
Unknown
Longitude
Unknown
Altitude
Unknown
Speed
Unknown
Apparent Right ascension
Unknown
Apparent Declination
Unknown
Sunlit
N/A
Visualization observer readout
Local Sidereal Time
21:28:12
Azimuth
Unknown
Elevation
Unknown
Doppler factor
Unknown
Orbital elements
Apogee altitude
476.128 km
Perigee altitude
474.781 km
Semi-major axis
6,853.592 km
Eccentricity
0.0001
Inclination
53.1622°
RAAN
318.4401°
Arg. of periapsis
93.203°
True anomaly
266.89715°
Mean anomaly
266.9084°
Eccentric anomaly
266.90278°
Mean motion
3.8253 °/min
Orbital period
94.11 mins
BSTAR
0.000070978
Loading maneuver chart data...
Computing Atmospheric mass density...
Loading historical data...
Loading historical data...
Loading historical data...
Loading historical data...
Loading historical data...
Loading historical data...
Loading historical data...

Documentation

Showing up to 5 results
|